#timestamp,LO_Frequency,Hit,StdDev 
1626444015.7,286046995.9,N
1626444035.5,286046995.7,N
1626444055.4,286046996.4,N
1626444075.2,286046996.2,N
1626444095.0,286046995.0,N
1626444096.0,286046995.0,N
1626444115.8,286046995.4,N
1626444135.6,286046996.7,N
1626444155.5,286046999.4,N
1626444175.3,286046999.0,N
1626444195.1,286046999.1,N
1626444215.9,286046999.5,N
1626444235.7,286046999.5,N
1626444255.6,286046996.5,N
1626444275.4,286046996.5,N
1626444295.2,286046996.5,N
1626444315.1,286046998.3,N
1626444316.0,286046998.3,N
1626444335.8,286047001.2,N
1626444355.7,286046999.2,N
1626444375.5,286046997.0,N
1626444395.3,286046996.6,N
1626444415.2,286046997.2,N
1626444435.9,286046997.3,N
1626444455.7,286046995.4,N
1626444475.6,286046996.5,N
1626444495.4,286046996.9,N
1626444515.3,286046997.1,N
1626444535.1,286046997.5,N
1626444536.0,286046997.5,N
1626444555.8,286046999.2,N
1626444575.7,286046999.4,N
1626444595.5,286046998.2,N
1626444615.3,286046999.1,N
1626444635.2,286046998.7,N
1626444655.0,286046998.7,N
1626444655.9,286046998.7,N
1626444675.8,286046996.5,N
1626444695.6,286046998.9,N
1626444715.4,286046999.0,N
1626444735.3,286046998.7,N
1626444755.1,286046999.5,N
1626444775.8,286046999.6,N
1626444795.7,286046998.6,N
1626444815.5,286046999.6,N
1626444835.4,286046999.4,N
1626444855.2,286046999.0,N
1626444875.0,286046999.6,N
1626444875.9,286046999.6,N
1626444895.8,286046999.2,N
1626444915.6,286046999.6,N
1626444935.4,286046998.4,N
1626444955.3,286046999.0,N
1626444975.1,286046999.0,N
1626444995.9,286047001.2,N
1626445015.7,286046998.5,N
1626445035.5,286046999.3,N
1626445055.4,286046999.6,N
1626445075.2,286046996.6,Y
1626445095.1,286046998.8,P
1626445096.0,286046998.8,P
1626445115.8,286047000.6,P
1626445135.6,286047000.5,N
1626445155.5,286047000.8,N
1626445175.3,286047000.1,N
1626445195.2,286047000.0,N
1626445215.9,286047000.5,N
1626445235.7,286047002.7,Y
1626445255.6,286047000.5,P
1626445275.4,286046998.5,P
1626445295.2,286046998.8,N
1626445315.1,286047001.0,N
1626445316.0,286047001.0,N
1626445335.8,286047000.2,N
1626445355.7,286047002.6,N
1626445375.5,286047001.5,N
1626445395.3,286047002.0,N
1626445415.2,286047003.9,Y
1626445435.0,286047004.4,P
1626445435.9,286047004.4,N
1626445455.8,286047002.5,N
1626445475.6,286047001.9,N
1626445495.4,286047002.6,N
1626445515.3,286047002.3,N
1626445535.1,286046999.8,N
1626445555.8,286047000.0,N
1626445575.7,286047000.2,N
1626445595.5,286047000.2,N
1626445615.4,286047000.4,N
1626445635.2,286046999.1,N
1626445655.0,286046998.7,N
1626445655.9,286046998.7,N
1626445675.8,286046998.6,N
1626445695.6,286046997.6,N
1626445715.5,286046995.4,N
1626445735.3,286046997.7,N
1626445755.1,286046997.4,N
1626445775.9,286046995.0,N
1626445795.7,286046997.7,N
1626445815.5,286046999.1,N
1626445835.4,286046999.6,N
1626445855.2,286046998.9,N
1626445875.0,286046999.1,N
1626445875.9,286046999.1,N
1626445895.8,286046998.3,N
1626445915.6,286047001.1,N
1626445935.5,286047001.1,N
1626445955.3,286047000.4,N
1626445975.1,286047000.7,N
1626445995.9,286047000.1,N
1626446015.7,286047001.2,N
1626446035.5,286046998.6,N
1626446055.4,286046996.5,N
1626446075.2,286046996.7,N
1626446095.1,286046997.2,N
1626446096.0,286046997.2,N
1626446115.8,286046996.8,N
1626446135.6,286046998.3,N
1626446155.5,286047000.9,N
1626446175.3,286047000.9,N
1626446195.1,286047000.8,N
1626446215.9,286046998.1,N
1626446235.7,286047000.2,N
1626446255.6,286047000.6,N
1626446275.4,286046999.9,N
1626446295.2,286047000.1,N
1626446315.1,286046998.3,N
1626446316.0,286046998.3,N
1626446335.8,286047000.9,N
1626446355.6,286047001.7,N
1626446375.5,286047001.4,N
1626446395.3,286047004.0,N
1626446415.2,286047004.0,N
1626446435.9,286047000.1,N
1626446455.7,286047000.6,N
1626446475.6,286047000.0,N
1626446495.4,286046999.7,N
1626446515.2,286047000.9,N
1626446535.1,286047000.3,N
1626446536.0,286047000.3,N
1626446555.8,286047002.2,N
1626446575.7,286046999.8,N
1626446595.5,286047002.2,N
1626446615.3,286047001.7,N
1626446635.2,286046999.9,N
1626446655.9,286047000.5,N
1626446675.7,286047000.6,N
1626446695.6,286047000.2,N
1626446715.4,286047000.4,N
1626446735.2,286046999.8,N
1626446755.1,286047000.0,N
1626446756.0,286047000.0,N
1626446775.8,286047000.5,N
1626446795.7,286047000.6,N
1626446815.5,286046998.2,N
1626446835.3,286047001.1,N
1626446855.2,286047001.2,N
1626446875.0,286046996.6,N
1626446875.9,286046996.6,N
1626446895.7,286046997.2,N
1626446915.6,286046997.4,N
1626446935.4,286046997.4,N
1626446955.3,286046997.2,N
1626446975.1,286046997.8,N
1626446995.9,286046996.9,N
1626447015.7,286046998.9,N
1626447035.5,286046999.1,N
1626447055.4,286046995.2,N
1626447075.2,286046999.2,N
1626447095.0,286046996.9,N
1626447095.9,286046996.9,N
1626447115.8,286046997.1,N
1626447135.6,286046996.8,N
1626447155.5,286046997.5,N
1626447175.3,286046997.0,N
1626447195.1,286046997.7,N
1626447215.9,286046997.6,N
1626447235.7,286046995.4,N
1626447255.5,286046996.2,N
1626447275.4,286046997.5,N
1626447295.2,286046995.3,N
1626447315.1,286046997.7,N
1626447316.0,286046997.7,N
1626447335.8,286046995.4,Y
1626447355.6,286046997.8,P
1626447375.5,286046997.7,P
1626447395.3,286046997.0,P
1626447415.2,286046995.0,Y
1626447435.9,286046999.3,P
1626447455.7,286046998.5,N
1626447475.6,286046998.5,N
1626447495.4,286047001.1,N
1626447515.2,286047000.7,N
1626447535.1,286046998.5,N
1626447536.0,286046998.5,N
1626447555.8,286047000.7,N
1626447575.7,286047000.8,N
1626447595.5,286047001.1,N
